sat.trackr.live / text

‹ back to catalog

STARLINK-5761

NORAD 55599 · 2023-020AG

PAYLOAD ACTIVE UNKNOWN

§ Identity

Operator
Country
US
Launch date
2023-02-12
Launch site
AFETR
Launch vehicle
Mass (kg)
RCS (m²)

Purposes: comms

External: N2YO · Heavens-Above · Gunter

§ Orbital elements

Epoch: 2026-09-20T21:53:09.528576Z

Period
94.27 min
Inclination
43.0043°
Eccentricity
0.0001385
Mean motion
15.27574300 rev/d
Perigee alt
482.1 km
Apogee alt
484.0 km
Semi-major
6,861.2 km
B*
-6.6625e-7
RAAN
331.9062°
Arg perigee
298.1093°
Mean anomaly
61.9618°
Rev number
19,889

§ Raw data

STARLINK-57611 55599U 23020AG  26263.91191584 -.00000281  00000+0 -66625-6 0  99902 55599  43.0043 331.9062 0001385 298.1093  61.9618 15.27574300198892

JSON: /api/v1/satellites/55599 · /tle

For live sub-satellite position, see the globe view (requires WebGL).

§ Visibility from observer

Set your observer location to see the next 7 days of passes ≥ 10°. The values pass through the URL so the page stays shareable.

No JS? Fill the form by hand. The geolocation button needs JavaScript.